User: anonymous   Login
Location: Nebula Knoll Observatory
(43.6666°N, 71.0000°W)
Time: 00:51:36
(UTC-04:00)
Language:

Cosmos 1782 - Orbit

View from above orbital plane
View from above orbital plane
View from above satellite
View from above satellite

Ground track
Ground track

The orbit data is extracted from the following two-line orbital elements,

1 16986U 86074A   17204.24495164 -.00000070 +00000-0 -67099-5 0  9999
2 16986 082.5072 086.1608 0010531 209.9832 150.0794 15.06594364655104
Epoch (UTC): 23 July 2017 05:52:43
Eccentricity: 0.0010531
inclination: 82.5072°
perigee height: 539 km
apogee height: 554 km
right ascension of ascending node: 86.1608°
argument of perigee: 209.9832°
revolutions per day: 15.06594364
mean anomaly at epoch: 150.0794°
orbit number at epoch: 65510

The dashed part of the orbit path shows where the satellite is in the earth's shadow,  

DLR